Regional Weather Roundup
Issued by NWS New Orleans/Baton Rouge, LA

Home | Current Version | Previous Version | Text Only | Print | Product List | Glossary On
Versions: 1 2 3 4 5 6 7 8 9 10 11 12 13 14 15 16 17 18 19 20 21 22 23 24 25 26 27 28 29 30 31 32 33 34 35 36 37 38 39 40 41 42 43 44 45 46 47 48 49 50
000
ASUS44 KLIX 080910
RWRLIX
NEW ORLEANS REGIONAL WEATHER ROUNDUP
NATIONAL WEATHER SERVICE NEW ORLEANS LA
300 AM CST MON FEB 08 2016

NOTE: "FAIR" INDICATES FEW OR NO CLOUDS BELOW 12,000 FEET WITH NO
      SIGNIFICANT WEATHER AND/OR OBSTRUCTIONS TO VISIBILITY.
      SKY/WX - SKY CONDITION AND SIGNIFICANT WEATHER.
      TMP - AIR TEMPERATURE.     DP    - DEWPOINT TEMPERATURE.
      RH  - RELATIVE HUMIDITY.   PRES  - PRESSURE.
      HI  - HEAT INDEX.          WCI   - WIND CHILL INDEX.

*  THESE STATIONS ARE NOT NWS OR FAA STATIONS AND ARE NOT UNDER
   NWS QUALITY CONTROL.

LAZ038-040-048-061>063-065>067-069-081000-
SOUTHEAST LOUISIANA

CITY           SKY/WX    TMP DP  RH WIND       PRES   REMARKS
N.O. AUDUBON   NOT AVBL
N.O. INTL ARPT CLEAR     45  35  68 SW6       30.11F
N.O. LAKEFRONT CLEAR     49  40  71 W15       30.11F
N.O. DOWNTOWN*   N/A     46  36  66 MISG      30.12F
RESERVE*         N/A     43  37  81 W6        30.11F
SLIDELL        CLEAR     42  36  79 CALM      30.09F
BATON ROUGE    CLEAR     41  35  79 W6        30.10F
BOOTHVILLE     CLEAR     47  41  80 W7        30.13F
BELLE CHASSE   CLEAR     41  36  82 W3        30.11F
BOGALUSA*        N/A     40  33  76 W3        30.09F
GALLIANO*      SUNNY    N/A N/A N/A CALM      30.13F
NEW ROADS*       N/A     40  37  87 CALM      30.11F
GONZALES*        N/A     39  37  92 CALM      30.11F
HAMMOND*       CLEAR     43  32  65 W3        30.09F
HOUMA*         PTCLDY    37  37 100 CALM      30.12F
PORT FOURCHON* SUNNY     52  45  76 W6        30.14F

$$

MSZ070-080>082-081000-
SOUTHERN MISSISSIPPI

CITY           SKY/WX    TMP DP  RH WIND       PRES   REMARKS
MCCOMB         CLEAR     40  34  79 SW3       30.06F
GULFPORT       PTCLDY    42  34  73 W3        30.08F
BILOXI         PTCLDY    45  38  76 W7        30.08F
PASCAGOULA     PTCLDY    45  34  65 W6        30.09S

$$

COASTAL OBSERVATIONS
LAKE AND NEARSHORE STATIONS

STATION/POSITION TIME  TEMP    WIND        PRES    WAVE
                       AIR SEA DIR/SP/G            HT/PER
                 (UTC) (F)     (DEG/KT/KT) (MB)    (FT/S)
PASCAGOULA       0800   50     280/ 12/ 17 1018.4
WAVELAND YACHT   0800   45 54  280/  3/  5 1019.2
GRAND ISLE       0800   53 56  290/  9/ 11 1020.4
NEW CANAL        0800   49 54  260/  7/ 11 1019.3
SHELL BEACH      0800   46 55  250/  8/  9 1019.3

OFFSHORE STATIONS

STATION/POSITION TIME  TEMP    WIND        PRES    WAVE
                       AIR SEA DIR/SP/G            HT/PER
                 (UTC) (F)     (DEG/KT/KT) (MB)    (FT/S)

$$




USA.gov is the U.S. government's official web portal to all federal, state and local government web resources and services.